[Date Prev][Date Next][Thread Prev][Thread Next] - [Date Index][Thread Index][Author Index]

2 Line ISS Keps 5-1



ISS
1 25544U 98067A   03121.11079861  .00026395  00000-0  34056-3 0  9491
2 25544  51.6322 256.7692 0006431  73.3219 272.6906 15.58778271253651


----
Via the sarex mailing list at AMSAT.ORG courtesy of AMSAT-NA.
To unsubscribe, send "unsubscribe sarex" to Majordomo@amsat.org



AMSAT Top AMSAT Home